This is the latest recevied weather packets stored in our database for station/object WX5RP. If no packets are shown the sender has not sent any weather packets the latest 10 day(s).
| Time | Temp. | Humidity | Pressure | Rain* | Wind** | Luminosity | Snow |
|---|---|---|---|---|---|---|---|
| 1788042017 | 23.33° C | 18% | 1017.2 hPa | 0 mm | - | 750 W/m² | - |
| 1788041417 | 22.78° C | 21% | 1017 hPa | 0 mm | - | 791 W/m² | - |
| 1788040817 | 22.78° C | 23% | 1017.1 hPa | 0 mm | - | 517 W/m² | - |
| 1788040217 | 22.78° C | 22% | 1017.6 hPa | 0 mm | - | 173 W/m² | - |
| 1788039616 | 22.78° C | 23% | 1017.5 hPa | 0 mm | - | 776 W/m² | - |
| 1788039016 | 22.22° C | 25% | 1017.5 hPa | 0 mm | - | 842 W/m² | - |
| 1788038416 | 22.78° C | 24% | 1017.5 hPa | 0 mm | - | 703 W/m² | - |
| 1788037816 | 22.22° C | 24% | 1017.2 hPa | 0 mm | - | 884 W/m² | - |
| 1788037218 | 22.22° C | 26% | 1017.2 hPa | 0 mm | - | 878 W/m² | - |
| 1788036617 | 21.67° C | 27% | 1017.5 hPa | 0 mm | - | 882 W/m² | - |
| 1788036016 | 22.22° C | 27% | 1017.8 hPa | 0 mm | - | 889 W/m² | - |
| 1788035416 | 21.67° C | 28% | 1017.8 hPa | 0 mm | - | 890 W/m² | - |
| 1788034816 | 21.11° C | 29% | 1018.1 hPa | 0 mm | - | 898 W/m² | - |
| 1788034216 | 21.11° C | 32% | 1017.6 hPa | 0 mm | - | 900 W/m² | - |
| 1788033616 | 20.56° C | 33% | 1017.6 hPa | 0 mm | - | 910 W/m² | - |
| 1788033016 | 20° C | 35% | 1018.3 hPa | 0 mm | - | 909 W/m² | - |
| 1788032416 | 20° C | 36% | 1018.7 hPa | 0 mm | - | 908 W/m² | - |
| 1788031816 | 19.44° C | 35% | 1018.7 hPa | 0 mm | - | 898 W/m² | - |
| 1788031216 | 20° C | 36% | 1018.8 hPa | 0 mm | - | 891 W/m² | - |
| 1788030619 | 19.44° C | 37% | 1018.2 hPa | 0 mm | - | 881 W/m² | - |
| 1788030016 | 18.89° C | 39% | 1018 hPa | 0 mm | - | 872 W/m² | - |
| 1788029416 | 18.89° C | 39% | 1018.6 hPa | 0 mm | - | 865 W/m² | - |
| 1788028816 | 18.33° C | 43% | 1018.9 hPa | 0 mm | - | 851 W/m² | - |
| 1788028216 | 18.33° C | 42% | 1018.9 hPa | 0 mm | - | 818 W/m² | - |
| 1788027615 | 18.33° C | 42% | 1019.1 hPa | 0 mm | - | 828 W/m² | - |
* Rain latest hour (hover to see other rain measurements)
** Current wind speed in m/s (hover to see current wind gust speed)